Location: NJAA Observatory
(40.6819°N, 74.8979°W)
Time: 22:56:35
(UTC-05:00)

Daily predictions for brighter satellites

Satellite Brightness Start Highest point End
(mag) Time Altitude Azimuth Time Altitude Azimuth Time Altitude Azimuth
COSMOS 2406 4.5 16:58:52 10° NW 17:04:22 48° WSW 17:09:47 10° S
Cosmos 2242 Rocket 4.1 17:00:25 10° SSW 17:04:56 66° W 17:09:27 10° N
CSL-04 Debris 4.2 17:00:28 10° SSE 17:05:46 58° ENE 17:11:04 10° N
SJ-12 4.0 17:02:35 10° SSE 17:06:44 87° WSW 17:10:55 10° NNW
Cosmos 1763 Rocket 3.5 17:04:31 10° NNW 17:09:45 85° ENE 17:14:52 10° SSE
Sich 1 Rocket 4.0 17:06:41 10° N 17:10:52 39° ENE 17:15:03 10° SSE
Lacrosse 5 4.0 17:09:50 10° NW 17:12:31 14° NNW 17:15:13 10° NNE
Cosmos 1833 Rocket 3.2 17:07:29 10° N 17:12:42 38° ENE 17:17:54 10° SE
Cosmos 44 4.1 17:11:07 10° NNW 17:15:11 29° NE 17:19:25 10° ESE
AQUARIUS 4.1 17:15:07 10° SSE 17:19:33 64° ENE 17:24:01 10° N
CORIOLIS 4.2 17:16:53 10° SSE 17:22:14 62° ENE 17:27:37 10° N
Cosmos 2297 4.1 17:17:10 10° S 17:22:36 47° ESE 17:28:04 10° NE
Cosmos 2278 Rocket 2.5 17:19:13 10° SSW 17:24:51 70° WNW 17:30:33 10° NNE
USA 116 4.0 17:23:38 10° NNE 17:27:51 50° E 17:31:31 10° S
Cosmos 1782 Rocket 3.8 17:25:22 10° N 17:29:32 43° ENE 17:33:42 10° SSE
Cosmos 540 Rocket 3.6 17:25:26 10° N 17:30:28 50° ENE 17:35:27 10° SE
Meteor 1-14 Rocket 4.3 17:25:22 10° N 17:31:03 84° W 17:36:35 10° S
ALOS 3.3 17:28:22 10° ESE 17:32:06 24° ENE 17:35:50 10° NNE
USA 234 4.1 17:27:05 12° ENE 17:32:18 31° SE 17:37:57 10° S
Cosmos 405 4.2 17:30:56 10° NNE 17:33:45 21° ENE 17:36:32 10° SE
SL-27 R/B 2.3 17:32:18 10° NNW 17:35:39 87° WSW 17:39:00 10° SSE
YAOGAN 1 2.7 17:31:30 10° SSE 17:35:41 51° ENE 17:39:53 10° N
COSMO-SKYMED 1 3.1 17:33:03 10° NNE 17:37:05 36° E 17:41:04 10° SSE
SMAP 3.2 17:33:45 10° S 17:38:23 79° WSW 17:43:03 10° NNW
Meteor 1-28 Rocket 3.1 17:34:56 10° NNE 17:38:40 84° ESE 17:42:22 10° S
CZ-4C R/B 3.4 17:32:47 10° NNW 17:39:18 38° NE 17:46:30 10° ESE
Cosmos 1503 Rocket 4.0 17:37:30 10° S 17:42:44 72° ESE 17:47:57 10° NNE
Ariane Rocket 3.5 17:38:00 10° S 17:43:03 66° WSW 17:48:07 10° NNW
COSMOS 2487 4.4 17:41:50 10° NNE 17:42:52 14° NNE 17:42:52 14° NNE
Tiangong 1 2.6 17:43:10 10° SSW 17:44:55 16° SSE 17:45:29 15° SE
Cosmos 1606 2.6 17:42:15 10° S 17:46:00 88° ESE 17:49:48 10° N
Cosmos 841 Rocket 4.2 17:41:55 10° NNW 17:47:07 59° WSW 17:52:14 10° S
Cosmos 1441 Rocket 3.9 17:43:40 10° SSE 17:47:12 32° E 17:49:19 19° NE
Meteor 1-11 Rocket 4.3 17:41:51 10° N 17:47:14 36° ENE 17:52:27 10° SE
IRS-1A Rocket 4.3 17:44:11 10° SSE 17:50:00 86° ENE 17:55:43 10° NNW
Landsat 4 3.6 17:47:47 10° NNE 17:51:36 82° ESE 17:55:24 10° SSW
METEOR-M 4.1 17:47:32 10° SSE 17:52:48 67° ENE 17:58:07 10° N
Cosmos 836 Rocket 4.4 17:48:18 10° NNW 17:53:36 78° ENE 17:58:51 10° SSE
Nadezhda 4 Rocket 4.4 17:48:54 10° N 17:54:30 36° ENE 18:00:04 10° SE
Cosmos 1072 Rocket 4.4 17:49:50 10° S 17:56:02 78° E 18:02:23 10° N
Cosmos 1703 Rocket 4.1 17:52:39 10° SSW 17:57:04 63° W 18:01:30 10° N
Cosmos 1484 Rocket 4.3 17:54:18 10° SSW 17:57:56 39° W 18:01:39 10° NNW
EO 1 Del DPAF 3.2 17:57:04 13° NNE 18:00:23 62° ESE 18:04:10 10° S
Cosmos 2221 Rocket 3.5 17:56:38 10° S 18:01:03 89° E 18:05:28 10° N
Cosmos 2034 Rocket 4.0 17:56:56 10° S 18:03:10 60° E 18:09:24 10° NNE
Cosmos 2151 Rocket 4.1 18:00:27 10° N 18:04:30 34° ENE 18:08:32 10° SE
Cosmos 2082 Rocket 2.2 17:59:35 10° NNW 18:05:18 85° WSW 18:10:56 10° SSE
ERS-2 2.1 18:03:28 10° SSE 18:07:08 87° WSW 18:10:50 10° NNW
SKYMED 3 4.4 18:02:47 10° NNE 18:07:08 80° E 18:11:29 10° S
CENTAUR R/B 4.5 18:03:55 10° W 18:08:43 22° NNW 18:14:00 10° NNE
OAO 3 Rocket 4.3 18:04:24 10° SW 18:08:48 33° SSE 18:10:55 23° ESE
MOS 1 4.2 18:03:39 10° SSE 18:09:20 82° ENE 18:15:04 10° NNW
CZ-4 R/B 2.7 18:05:45 10° S 18:09:24 40° W 18:13:03 10° NNW
Timation 2 Rocket 4.3 18:05:48 10° NNW 18:12:22 49° ENE 18:18:04 13° SE
Meteor 2-6 Rocket 4.2 18:07:53 10° SSW 18:13:20 81° W 18:18:57 10° N
Cosmos 1092 Rocket 4.4 18:07:56 10° N 18:13:33 36° ENE 18:19:10 10° SE
Cosmos 1602 3.5 18:12:49 10° N 18:16:40 84° E 18:20:32 10° S
Okean 2 Rocket 3.1 18:12:54 10° N 18:17:27 85° W 18:21:58 10° S
Cosmos 1633 4.3 18:16:35 10° NNW 18:19:57 34° W 18:23:18 10° SSW
USA 229 DEB 4.0 18:14:21 10° S 18:20:36 42° ESE 18:22:43 33° ENE
USA 229 4.0 18:14:28 10° S 18:20:42 42° ESE 18:22:46 33° ENE
Cosmos 405 Rocket 2.9 18:19:01 10° SSW 18:22:47 67° W 18:25:14 20° N
Cosmos 783 Rocket 4.4 18:19:28 10° NNW 18:24:49 75° ENE 18:30:07 10° SSE
SKYMED 2 3.9 18:20:52 10° N 18:25:10 64° WNW 18:29:27 10° SSW
Cosmos 1464 Rocket 4.4 18:23:56 10° SSW 18:29:58 62° W 18:36:06 10° N
BREEZE-M R/B 4.1 18:28:46 10° WNW 18:31:38 36° SW 18:35:53 12° SSE
SPOT 3 Rocket 3.7 18:27:10 10° S 18:32:22 77° WSW 18:37:37 10° NNW
BREEZE-M DEB (TANK) 3.5 18:30:56 10° NW 18:32:12 32° NW 18:32:12 32° NW
FengYun 1-2 T 4.3 18:31:44 27° SE 18:34:34 52° ENE 18:39:59 10° N
Cosmos 44 Rocket 3.7 18:32:13 10° NW 18:37:04 64° WSW 18:42:00 10° SSE
FENGYUN 3A 3.7 18:32:22 10° S 18:37:47 81° WSW 18:43:13 10° NNW
Cosmos 292 Rocket 4.4 18:36:11 10° NNW 18:40:49 55° WSW 18:45:27 10° S
Meteor 2-20 Rocket 4.3 18:37:48 10° N 18:43:56 87° E 18:50:01 10° S
Meteor 1-5 Rocket 3.9 18:39:02 10° N 18:44:21 70° ENE 18:49:37 10° SSE
ISS -0.9 18:42:32 10° S 18:42:42 11° S 18:42:42 11° S
Meteor 1-27 Rocket 4.2 18:43:03 10° SSW 18:48:54 65° WNW 18:54:50 10° N
Lacrosse 5 4.1 18:54:58 10° NNW 18:56:22 13° N 18:56:22 13° N
Cosmos 2369 Rocket 3.1 18:54:12 10° S 18:57:34 35° SSE 18:57:34 35° SSE
Thor Agena Rocket 3.8 19:04:54 57° S 19:04:54 57° S 19:08:58 10° SSW
ALOS 3.9 19:05:08 10° SSW 19:09:21 34° W 19:13:36 10° NNW
USA 234 3.3 19:14:26 59° NNE 19:15:38 73° NW 19:22:07 10° WSW
Cosmos 1943 Rocket 4.5 19:18:41 10° S 19:19:04 12° S 19:19:04 12° S
CZ-4C R/B 3.4 19:21:05 10° NW 19:28:15 58° WSW 19:32:49 26° S
